Location: Brno
(49.2000°N, 16.6330°E)
Time: 04:14:08
(UTC+02:00)

Vanguard 3 - Pass Details

Date: 07 August 2021
Orbit: 510 x 3260 km, 33.3° (Epoch: 16 September)

Event Time Altitude Azimuth Distance (km) Brightness Sun altitude
Rises 21:24:37 0° 267° (W) 5,985 12.4 -9.3°
Reaches altitude 10° 21:28:35 10° 260° (W) 5,300 11.9 -9.8°
Maximum altitude 21:43:03 37° 202° (SSW) 4,243 10.6 -11.6°
Enters shadow 21:58:01 14° 148° (SSE) 5,802 10.8 -13.3°
Drops below altitude 10° 21:59:48 10° 145° (SE) 6,084 - -13.5°
Sets 22:04:50 0° 137° (SE) 6,927 - -14.1°
